Weather History for Willmar, MN

Change the Weather History Date:

Saturday, September 8, 2012

  Actual Average (KLJF) Record (KLJF)
Temperature  
Mean Temperature 60 °F -  
Max Temperature 77 °F 77 °F 97 °F (1978)
Min Temperature 42 °F 52 °F 38 °F (1992)
Degree Days  
Heating Degree Days 6    
Growing Degree Days 10 (Base 50)    
Moisture  
Dew Point 41 °F    
Average Humidity 54    
Maximum Humidity 87    
Minimum Humidity 22    
Precipitation  
Precipitation 0.00 in - - ()
Sea Level Pressure  
Sea Level Pressure 30.01 in    
Wind  
Wind Speed 10 mph (WNW)    
Max Wind Speed 31 mph    
Max Gust Speed 41 mph    
Visibility 10 miles    
Events      
Averages and records for this station are not official NWS values.
T = Trace of Precipitation, MM = Missing Value Source: NWS Daily Summary

Daily Weather History Graph

Daily Weather History Graph

Search for Another Location

Airport:

Trip Planner

Search our weather history database for the weather conditions in past years. The results will help you decide how hot, cold, wet, or windy it might be!

Date:

Astronomy

Sep. 08, 2012 Rise Set
Actual Time 6:51 AM CDT 7:43 PM CDT
Civil Twilight 6:21 AM CDT 8:13 PM CDT
Nautical Twilight 5:45 AM CDT 8:49 PM CDT
Astronomical Twilight 5:08 AM CDT 9:26 PM CDT
Moon No Moon Rise 2:53 PM CDT (9/8)
Length of Visible Light 13h 52m
Length of Day
12h 52m
Waning Gibbous, 48% of the Moon is Illuminated
Sep 8
Waning Gibbous
Sep 15
New
Sep 22
First Quarter
Sep 29
Full
Oct 8
Last Quarter

Hourly Weather History & Observations

Time (CDT) Temp. Windchill Dew Point Humidity Pressure Visibility Wind Dir Wind Speed Gust Speed Precip Events Conditions
12:15 AM 48.2 °F - 42.8 °F 82% 30.10 in 10.0 mi WNW 3.5 mph - N/A   Clear
12:35 AM 46.4 °F 45.2 °F 39.2 °F 76% 30.08 in 10.0 mi WNW 3.5 mph - N/A   Clear
1:15 AM 46.4 °F 45.2 °F 41.0 °F 81% 30.08 in 10.0 mi West 3.5 mph - N/A   Clear
1:35 AM 46.4 °F 45.2 °F 41.0 °F 81% 30.08 in 10.0 mi West 3.5 mph - N/A   Clear
1:56 AM 46.4 °F 44.3 °F 41.0 °F 81% 30.07 in 10.0 mi West 4.6 mph - N/A   Clear
2:15 AM 46.4 °F 44.3 °F 39.2 °F 76% 30.07 in 10.0 mi West 4.6 mph - N/A   Clear
2:35 AM 48.2 °F - 41.0 °F 76% 30.08 in 10.0 mi West 4.6 mph - N/A   Clear
2:56 AM 46.4 °F 45.2 °F 39.2 °F 76% 30.07 in 10.0 mi WNW 3.5 mph - N/A   Clear
3:15 AM 46.4 °F 45.2 °F 39.2 °F 76% 30.07 in 10.0 mi West 3.5 mph - N/A   Clear
3:35 AM 46.4 °F 45.2 °F 39.2 °F 76% 30.06 in 10.0 mi West 3.5 mph - N/A   Clear
3:56 AM 44.6 °F 43.1 °F 39.2 °F 81% 30.06 in 10.0 mi West 3.5 mph - N/A   Clear
4:15 AM 44.6 °F 43.1 °F 41.0 °F 87% 30.06 in 10.0 mi WSW 3.5 mph - N/A   Clear
4:35 AM 46.4 °F - 41.0 °F 81% 30.07 in 10.0 mi Calm Calm - N/A   Clear
4:56 AM 44.6 °F 41.4 °F 39.2 °F 81% 30.06 in 10.0 mi WSW 5.8 mph - N/A   Clear
5:15 AM 42.8 °F 39.3 °F 39.2 °F 87% 30.05 in 10.0 mi WSW 5.8 mph - N/A   Clear
5:35 AM 44.6 °F 42.2 °F 39.2 °F 81% 30.05 in 10.0 mi West 4.6 mph - N/A   Clear
5:56 AM 42.8 °F 40.1 °F 39.2 °F 87% 30.05 in 10.0 mi WSW 4.6 mph - N/A   Clear
6:15 AM 44.6 °F 42.2 °F 39.2 °F 81% 30.04 in 10.0 mi West 4.6 mph - N/A   Clear
6:35 AM 44.6 °F 43.1 °F 39.2 °F 81% 30.03 in 10.0 mi WSW 3.5 mph - N/A   Clear
6:56 AM 44.6 °F 41.4 °F 41.0 °F 87% 30.03 in 10.0 mi SW 5.8 mph - N/A   Clear
7:15 AM 44.6 °F 43.1 °F 41.0 °F 87% 30.03 in 10.0 mi SW 3.5 mph - N/A   Clear
7:35 AM 44.6 °F 41.4 °F 41.0 °F 87% 30.03 in 10.0 mi SW 5.8 mph - N/A   Clear
7:56 AM 48.2 °F - 42.8 °F 82% 30.02 in 10.0 mi SW 4.6 mph - N/A   Clear
8:15 AM 50.0 °F - 44.6 °F 82% 30.02 in 10.0 mi SW 5.8 mph - N/A   Clear
8:35 AM 53.6 °F - 44.6 °F 72% 30.01 in 10.0 mi WSW 5.8 mph - N/A   Clear
8:56 AM 55.4 °F - 44.6 °F 67% 30.00 in 10.0 mi WSW 11.5 mph - N/A   Clear
9:15 AM 59.0 °F - 44.6 °F 59% 29.99 in 10.0 mi West 10.4 mph - N/A   Clear
9:35 AM 60.8 °F - 44.6 °F 55% 29.98 in 10.0 mi West 11.5 mph - N/A   Clear
9:56 AM 62.6 °F - 44.6 °F 52% 29.98 in 10.0 mi West 11.5 mph 19.6 mph N/A   Clear
10:15 AM 64.4 °F - 44.6 °F 49% 29.96 in 10.0 mi West 11.5 mph 19.6 mph N/A   Clear
10:35 AM 66.2 °F - 44.6 °F 46% 29.95 in 10.0 mi West 11.5 mph - N/A   Clear
10:55 AM 69.8 °F - 42.8 °F 38% 29.95 in 10.0 mi West 13.8 mph - N/A   Clear
11:15 AM 71.6 °F - 42.8 °F 35% 29.93 in 10.0 mi West 17.3 mph - N/A   Clear
11:35 AM 73.4 °F - 39.2 °F 29% 29.92 in 10.0 mi West 15.0 mph 19.6 mph N/A   Clear
11:55 AM 73.4 °F - 39.2 °F 29% 29.92 in 10.0 mi West 13.8 mph 20.7 mph N/A   Clear
12:15 PM 75.2 °F - 39.2 °F 27% 29.91 in 10.0 mi NW 18.4 mph 24.2 mph N/A   Clear
12:35 PM 77.0 °F - 37.4 °F 24% 29.90 in 10.0 mi WNW 16.1 mph 29.9 mph N/A   Clear
12:55 PM 77.0 °F - 37.4 °F 24% 29.90 in 10.0 mi WNW 18.4 mph 25.3 mph N/A   Clear
1:15 PM 77.0 °F - 37.4 °F 24% 29.90 in 10.0 mi NW 25.3 mph 33.4 mph N/A   Clear
1:35 PM 75.2 °F - 39.2 °F 27% 29.91 in 10.0 mi NW 24.2 mph 33.4 mph N/A   Clear
1:55 PM 75.2 °F - 39.2 °F 27% 29.92 in 10.0 mi NW 25.3 mph 31.1 mph N/A   Clear
2:15 PM 73.4 °F - 42.8 °F 33% 29.92 in 10.0 mi NW 24.2 mph 31.1 mph N/A   Clear
2:35 PM 73.4 °F - 42.8 °F 33% 29.93 in 10.0 mi NNW 25.3 mph 32.2 mph N/A   Clear
2:55 PM 73.4 °F - 39.2 °F 29% 29.92 in 10.0 mi NW 29.9 mph 36.8 mph N/A   Clear
3:15 PM 75.2 °F - 37.4 °F 25% 29.93 in 10.0 mi NW 28.8 mph 36.8 mph N/A   Clear
3:35 PM 75.2 °F - 33.8 °F 22% 29.93 in 10.0 mi NNW 31.1 mph 41.4 mph N/A   Clear
3:55 PM 75.2 °F - 35.6 °F 24% 29.94 in 10.0 mi NW 29.9 mph 36.8 mph N/A   Clear
4:15 PM 73.4 °F - 33.8 °F 23% 29.95 in 10.0 mi NNW 27.6 mph 38.0 mph N/A   Clear
4:35 PM 73.4 °F - 35.6 °F 25% 29.96 in 10.0 mi NNW 26.5 mph 36.8 mph N/A   Clear
4:55 PM 71.6 °F - 35.6 °F 27% 29.96 in 10.0 mi NNW 24.2 mph 32.2 mph N/A   Clear
5:15 PM 71.6 °F - 37.4 °F 29% 29.97 in 10.0 mi North 21.9 mph 33.4 mph N/A   Scattered Clouds
5:35 PM 71.6 °F - 39.2 °F 31% 29.98 in 10.0 mi NNW 19.6 mph 34.5 mph N/A   Scattered Clouds
5:55 PM 69.8 °F - 39.2 °F 33% 30.00 in 10.0 mi NNW 20.7 mph 31.1 mph N/A   Scattered Clouds
6:15 PM 68.0 °F - 41.0 °F 37% 30.01 in 10.0 mi NNW 19.6 mph 26.5 mph N/A   Scattered Clouds
6:35 PM 66.2 °F - 39.2 °F 37% 30.02 in 10.0 mi North 20.7 mph 28.8 mph N/A   Mostly Cloudy
6:55 PM 66.2 °F - 41.0 °F 40% 30.02 in 10.0 mi NNW 21.9 mph 26.5 mph N/A   Mostly Cloudy
7:15 PM 66.2 °F - 42.8 °F 43% 30.03 in 10.0 mi NNW 18.4 mph 21.9 mph N/A   Overcast
7:35 PM 66.2 °F - 42.8 °F 43% 30.03 in 10.0 mi NNW 17.3 mph 23.0 mph N/A   Overcast
7:55 PM 64.4 °F - 42.8 °F 45% 30.04 in 10.0 mi NNW 16.1 mph 20.7 mph N/A   Overcast
8:15 PM 64.4 °F - 42.8 °F 45% 30.05 in 10.0 mi NNW 17.3 mph 25.3 mph N/A   Overcast
8:35 PM 64.4 °F - 42.8 °F 45% 30.06 in 10.0 mi North 16.1 mph 25.3 mph N/A   Overcast
9:15 PM 64.4 °F - 42.8 °F 45% 30.07 in 10.0 mi North 13.8 mph - N/A   Overcast
9:35 PM 64.4 °F - 44.6 °F 49% 30.08 in 10.0 mi North 16.1 mph 19.6 mph N/A   Overcast
10:15 PM 62.6 °F - 44.6 °F 52% 30.10 in 10.0 mi North 12.7 mph 19.6 mph N/A   Mostly Cloudy
10:35 PM 62.6 °F - 44.6 °F 52% 30.10 in 10.0 mi NNW 12.7 mph - N/A   Mostly Cloudy
10:55 PM 60.8 °F - 44.6 °F 55% 30.10 in 10.0 mi North 11.5 mph - N/A   Scattered Clouds
11:15 PM 60.8 °F - 44.6 °F 55% 30.11 in 10.0 mi North 11.5 mph - N/A   Clear
11:55 PM 57.2 °F - 46.4 °F 67% 30.11 in 10.0 mi North 6.9 mph - N/A   Clear